{"data":{"norad_id":51957,"intl_designator":"2022-025B","name":"STARLINK-3694","alt_names":[],"object_type":"PAYLOAD","status":"ACTIVE","operator":null,"country":"US","launch_date":"2022-03-09","launch_site_code":"AFETR","launch_vehicle":null,"mission":null,"orbit_class":"UNKNOWN","rcs_meters":null,"size_class":null,"mass_kg":null,"dimensions":null,"purposes":["comms"],"wikipedia_slug":null,"has_3d_model":false,"image_url":null,"decayed_at":null,"tle_current":{"epoch":"2026-09-19T12:41:14.480448Z","epoch_age_seconds":140121,"freshness":"FRESH","line1":"1 51957U 22025B   26262.52863982 -.00000288  00000+0  24837-5 0  9996","line2":"2 51957  53.1614 214.7749 0001753  94.5281 265.5921 15.31697616250538","mean_motion":15.31697616,"eccentricity":0.0001753,"inclination_deg":53.1614,"raan_deg":214.7749,"arg_perigee_deg":94.5281,"mean_anomaly_deg":265.5921,"bstar":2.4837e-6,"rev_number":25053,"period_min":94.013334287255,"perigee_km":469.54649243176,"apogee_km":471.94771119786,"semimajor_km":6848.8841018148,"source":"CELESTRAK","updated_at":"2026-09-20T09:00:39.975211Z"}}}